[[[{"header":{"parameterUnit":"kt","parameterCategory":2,"dx":1,"dy":1,"la1":30.253999710083008,"la2":30.299108505249023,"lo1":-89.0895004272461,"lo2":-89.04439544677734,"nx":28,"ny":28,"refTime":"2022-09-20T15:00:00:Z","depth":0,"parameterNumber":1,"parameterNumberName":"U-component_of_WINDS"},"data":[-0.4781,-0.4611,-0.4599,-0.4401,-0.4357,-0.422,-0.4168,-0.4099,-0.4041,-0.3877,-0.3782,-0.3752,-0.369,-0.3573,-0.347,-0.3459,-0.3418,-0.337,-0.3366,-0.3591,-0.3622,-0.3651,-0.3692,-0.336,-0.336,-0.3136,-0.3134,-0.3133,-0.4959,-0.4914,-0.4803,-0.4688,-0.4595,-0.4636,-0.4548,-0.4468,-0.4344,-0.4269,-0.4173,-0.4027,-0.3911,-0.3862,-0.3749,-0.3672,-0.3685,-0.3643,-0.365,-0.364,-0.388,-0.3923,-0.3635,-0.3635,-0.3635,-0.3635,-0.3635,-0.3635,-0.5282,-0.5179,-0.5102,-0.4982,-0.492,-0.4843,-0.4743,-0.4708,-0.46,-0.4477,-0.4481,-0.434,-0.4263,-0.4116,-0.4063,-0.3955,-0.3999,-0.3948,-0.3936,-0.3925,-0.3916,-0.4252,-0.3933,-0.3934,-0.3935,-0.3936,-0.3936,0,-0.5515,-0.5511,-0.5402,-0.5291,-0.5202,-0.5113,-0.503,-0.4967,-0.4953,-0.4863,-0.4733,-0.4656,-0.4504,-0.4381,-0.4269,-0.4223,-0.4255,-0.4254,-0.4221,-0.422,-0.4236,-0.4231,-0.4628,-0.4263,-0.4266,-0.4268,-0.427,-0.4271,-0.5843,-0.5722,-0.5632,-0.5558,-0.5508,-0.5386,-0.5312,-0.5307,-0.5228,-0.5124,-0.5033,-0.4909,-0.4808,-0.4601,-0.4559,-0.4444,-0.4459,-0.4323,-0.4441,-0.4447,-0.4462,-0.4471,-0.4462,-0.43,-0.4296,-0.4293,-0.4291,0,-0.6031,-0.6007,-0.5814,-0.5735,-0.5712,-0.5586,-0.5519,-0.5415,-0.5389,-0.5243,-0.5208,-0.5168,-0.5039,-0.5018,-0.4864,-0.4857,-0.4656,-0.467,-0.4686,-0.4689,-0.4569,-0.4582,-0.417,-0.4119,-0.4458,-0.4454,-0.4452,0,-0.6303,-0.6143,-0.6118,-0.6006,-0.583,-0.5828,-0.5654,-0.5614,-0.5544,-0.5428,-0.5459,-0.535,-0.5338,-0.5227,-0.5215,-0.5046,-0.5015,-0.5001,-0.5001,-0.5,-0.5002,-0.4958,-0.4976,-0.4997,-0.4999,-0.5001,-0.5003,0,-0.6602,-0.6396,-0.6216,-0.6165,-0.6062,-0.5977,-0.593,-0.585,-0.5775,-0.5674,-0.5626,-0.5508,-0.5443,-0.5353,-0.534,-0.5422,-0.5129,-0.5239,-0.5116,-0.5116,-0.5052,-0.5056,-0.4697,-0.5005,-0.5006,-0.5007,-0.5007,0,-0.6818,-0.6715,-0.6453,-0.6371,-0.6316,-0.6195,-0.608,-0.597,-0.5883,-0.5868,-0.5788,-0.5805,-0.565,-0.5763,-0.5551,-0.5663,-0.5599,-0.557,-0.556,-0.5546,-0.5673,-0.5477,-0.5134,-0.5099,-0.5535,-0.5539,-0.5543,0,-0.7169,-0.6897,-0.6892,-0.6642,-0.6514,-0.656,-0.6426,-0.6346,-0.6314,-0.6202,-0.6167,-0.6036,-0.6114,-0.607,-0.5968,-0.5926,-0.5781,-0.5945,-0.5786,-0.5781,-0.5813,-0.5496,-0.5452,-0.5212,-0.5598,-0.5593,-0.5588,0,-0.7438,-0.7311,-0.7266,-0.7209,-0.71,-0.699,-0.6835,-0.6705,-0.6631,-0.6533,-0.6405,-0.6217,-0.6271,-0.6195,-0.6195,-0.609,-0.588,-0.616,-0.6157,-0.6114,-0.5622,-0.5583,-0.5542,-0.5903,-0.5896,-0.5891,-0.5632,0,-0.7779,-0.7636,-0.7513,-0.738,-0.7291,-0.713,-0.7105,-0.7016,-0.7026,-0.6995,-0.6802,-0.6724,-0.6588,-0.6533,-0.6539,-0.6303,-0.634,-0.6395,-0.6502,-0.6293,-0.6208,-0.6172,-0.6633,-0.6636,-0.6639,-0.6641,0,0,-0.8123,-0.7917,-0.7914,-0.7761,-0.7686,-0.7733,-0.7564,-0.7495,-0.7354,-0.7302,-0.7362,-0.7086,-0.7018,-0.6786,-0.6719,-0.6661,-0.6618,-0.6689,-0.6392,-0.6364,-0.6339,-0.6248,-0.6211,-0.6645,-0.6646,-0.6647,-0.6648,0,-0.8242,-0.8173,-0.8005,-0.7935,-0.783,-0.7804,-0.7764,-0.7667,-0.7638,-0.7445,-0.7485,-0.7365,-0.7139,-0.7066,-0.6998,-0.6717,-0.6753,-0.6677,-0.6537,-0.6418,-0.6387,-0.636,-0.6264,-0.6229,-0.6654,-0.6653,-0.6653,0,-0.8505,-0.8434,-0.8349,-0.8176,-0.8107,-0.797,-0.8078,-0.7926,-0.7825,-0.7878,-0.7686,-0.7638,-0.7534,-0.7315,-0.7215,-0.7266,-0.6879,-0.6992,-0.6976,-0.6964,-0.6847,-0.681,-0.6777,-0.7214,-0.7216,-0.7218,0,0,-0.8611,-0.8477,-0.8397,-0.8199,-0.8153,-0.8111,-0.8033,-0.8035,-0.794,-0.7902,-0.784,-0.7747,-0.7617,-0.7531,-0.7406,-0.7168,-0.7148,-0.7063,-0.7036,-0.7015,-0.6992,-0.6869,-0.6832,-0.7226,-0.7226,-0.7226,0,0,-0.8661,-0.8561,-0.8588,-0.8355,-0.8266,-0.8172,-0.8053,-0.8082,-0.7967,-0.7982,-0.7973,-0.7948,-0.7742,-0.7691,-0.78,-0.7444,-0.7551,-0.7524,-0.7485,-0.7451,-0.7424,-0.7441,-0.7897,0,0,0,0,0,-0.8769,-0.8575,-0.86,-0.8557,-0.8335,-0.8159,-0.813,-0.812,-0.8198,-0.8105,-0.8059,-0.81,-0.775,-0.7847,-0.7803,-0.7681,-0.7328,-0.731,-0.7293,-0.7186,-0.7151,-0.7121,0,0,0,0,0,0,-0.8752,-0.8699,-0.8605,-0.8503,-0.8453,-0.8166,-0.8296,-0.8288,-0.8208,-0.8219,-0.8108,-0.8096,-0.8083,-0.7868,-0.7829,-0.7713,-0.791,-0.7321,-0.7305,-0.7292,-0.7174,-0.7145,-0.7121,0,0,0,0,0,-0.8738,-0.8696,-0.8343,-0.8506,-0.8462,-0.8403,-0.8303,-0.8297,-0.8235,-0.8161,-0.8151,-0.8235,-0.808,-0.8046,-0.7845,-0.7731,-0.7937,-0.7923,-0.7311,-0.7299,-0.7288,-0.716,0,0,0,0,0,0,-0.8728,-0.8689,-0.8334,-0.832,-0.8578,-0.8419,-0.8394,-0.8305,-0.8182,-0.817,-0.8288,-0.8298,-0.8075,-0.805,-0.8024,-0.7738,-0.7959,-0.7944,-0.7935,-0.7301,-0.7292,-0.7284,0,0,0,0,0,0,-0.8712,-0.8677,-0.8327,-0.8418,-0.8415,-0.8434,-0.8411,-0.8236,-0.8179,-0.8316,-0.8321,-0.8294,-0.8114,-0.8052,-0.8032,-0.7759,-0.7976,-0.7962,-0.7952,-0.7946,-0.7294,-0.7286,0,0,0,0,0,0,-0.8697,-0.8667,-0.8422,-0.8419,-0.8417,-0.8264,-0.8279,-0.8052,-0.826,-0.8321,-0.8278,-0.8286,-0.8114,-0.8094,-0.8037,-0.7772,-0.7762,-0.7975,-0.7966,-0.7959,-0.7954,0,0,0,0,0,0,0,-0.8685,-0.8887,-0.8414,-0.842,-0.8418,-0.8195,-0.8192,-0.8188,-0.8261,-0.8269,-0.8276,-0.8283,-0.8056,-0.8041,-0.8025,-0.7783,0,0,-0.7977,-0.797,0,0,0,0,0,0,0,0,-0.8899,-0.889,-0.8414,-0.8411,-0.8408,-0.8195,-0.8192,-0.8189,-0.8263,-0.8268,-0.8274,-0.828,-0.8052,-0.804,-0.8027,0,0,0,0,0,0,0,0,0,0,0,0,0,0,0,-0.8414,-0.8411,0,-0.8194,-0.8192,-0.8189,-0.8263,-0.8268,-0.8273,-0.8278,-0.8049,-0.8038,-0.8028,0,0,0,0,0,0,0,0,0,0,0,0,0,0,0,0,0,0,0,0,0,0,0,0,0,0,0,0,0,0,0,0,0,0,0,0,0,0,0,0,0,0,0,0,0,0,0,0,0,0,0,0,0,0,0,0,0,0,0,0,0,0,0,0,0,0,0,0,0]}],[{"header":{"parameterUnit":"kt","parameterCategory":2,"dx":1,"dy":1,"la1":30.253999710083008,"la2":30.299108505249023,"lo1":-89.0895004272461,"lo2":-89.04439544677734,"nx":28,"ny":28,"refTime":"2022-09-20T15:00:00:Z","depth":0,"parameterNumber":2,"parameterNumberName":"V-component_of_WINDS"},"data":[4.0163,4.045,4.05,4.0851,4.0957,4.1204,4.131,4.1451,4.1578,4.188,4.2062,4.2148,4.2297,4.2528,4.273,4.2764,4.2842,4.2898,4.2928,4.2626,4.2588,4.2552,4.2484,4.2917,4.2917,4.323,4.3233,4.3235,3.991,4.0016,4.0221,4.0454,4.0627,4.06,4.0785,4.0931,4.1156,4.1318,4.1506,4.1778,4.2002,4.2139,4.2363,4.2496,4.2498,4.2552,4.2541,4.2563,4.2244,4.2172,4.2545,4.2545,4.2545,4.2545,4.2545,4.2545,3.9463,3.9636,3.9809,4.0033,4.0167,4.0323,4.0498,4.06,4.0803,4.1047,4.1078,4.1336,4.1511,4.1818,4.1936,4.2136,4.2088,4.2167,4.2185,4.2202,4.2208,4.1727,4.218,4.2179,4.2178,4.2178,4.2177,0,3.9152,3.9184,3.9389,3.9606,3.9775,3.9952,4.0125,4.0235,4.0334,4.05,4.0743,4.0894,4.1192,4.1427,4.1657,4.1768,4.1762,4.1774,4.1826,4.1809,4.1757,4.1777,4.1243,4.1761,4.1758,4.1755,4.1754,4.1752,3.8697,3.89,3.9114,3.9249,3.936,3.9582,3.9725,3.9799,3.9948,4.0174,4.0326,4.0566,4.0762,4.1149,4.1275,4.1501,4.1502,4.1689,4.1537,4.1507,4.1494,4.1478,4.1493,4.1717,4.1722,4.1725,4.1728,0,3.8433,3.8529,3.8862,3.906,3.9116,3.9324,3.9493,3.9674,3.976,4.002,4.0086,4.0223,4.0466,4.0564,4.0867,4.091,4.1242,4.1242,4.1174,4.1177,4.1348,4.1327,4.1911,4.1986,4.1547,4.1551,4.1554,0,3.8081,3.8348,3.8473,3.8663,3.8958,3.9028,3.9318,3.9423,3.9583,3.979,3.9802,3.9996,4.0095,4.0303,4.037,4.0661,4.0722,4.077,4.0784,4.0766,4.0759,4.0847,4.0823,4.082,4.0817,4.0815,4.0812,0,3.7654,3.8043,3.8351,3.8456,3.8701,3.8845,3.8954,3.9138,3.9283,3.9487,3.958,3.9816,3.9945,4.0124,4.0207,4.0097,4.0571,4.0439,4.0619,4.0617,4.0719,4.0711,4.1203,4.0809,4.0808,4.0807,4.0806,0,3.7386,3.7591,3.8031,3.823,3.8331,3.854,3.8772,3.8975,3.917,3.9225,3.9389,3.9412,3.9685,3.9542,3.9916,3.9748,3.9872,3.9947,3.9962,3.999,3.9828,4.0082,4.0547,4.0595,4.0013,4.0007,4.0001,0,3.6863,3.7338,3.7403,3.7823,3.8055,3.8049,3.8283,3.8458,3.8552,3.8762,3.8868,3.9112,3.903,3.9121,3.9293,3.9412,3.9631,3.9387,3.9683,3.9692,3.9619,4.005,4.0091,4.0434,3.9919,3.9927,3.9933,0,3.6473,3.6775,3.6847,3.6966,3.7215,3.7416,3.7686,3.7943,3.8077,3.8283,3.8506,3.8861,3.8807,3.8963,3.9012,3.9186,3.9485,3.911,3.9117,3.9165,3.9891,3.9925,3.9983,3.9478,3.9488,3.9496,3.9868,0,3.6024,3.6282,3.6483,3.6762,3.6934,3.721,3.732,3.7485,3.751,3.7606,3.7947,3.8132,3.8403,3.8502,3.8536,3.8907,3.886,3.8808,3.8678,3.8962,3.9087,3.9139,3.848,3.8477,3.8474,3.8472,0,0,3.5496,3.587,3.5943,3.6211,3.636,3.6358,3.6641,3.6789,3.709,3.7191,3.7119,3.7645,3.7803,3.8205,3.8303,3.8419,3.8492,3.8395,3.8828,3.8867,3.8904,3.9035,3.9088,3.8468,3.8467,3.8466,3.8465,0,3.5356,3.5513,3.5795,3.5949,3.6181,3.6271,3.6338,3.6572,3.6648,3.699,3.6987,3.7208,3.7638,3.7797,3.7935,3.8347,3.8335,3.8424,3.86,3.8798,3.8841,3.8879,3.9015,3.9065,3.8459,3.8459,3.846,0,3.4985,3.5154,3.5305,3.5653,3.5808,3.6056,3.5943,3.6216,3.6399,3.6396,3.6736,3.6857,3.7088,3.746,3.7633,3.7574,3.8182,3.802,3.804,3.8061,3.8258,3.8309,3.8354,3.7753,3.775,3.7747,0,0,3.4848,3.5093,3.5305,3.5633,3.5729,3.5872,3.602,3.6063,3.627,3.6353,3.6509,3.6711,3.6958,3.7122,3.7364,3.776,3.781,3.7927,3.7961,3.7988,3.8023,3.8227,3.8278,3.7736,3.7736,3.7736,0,0,3.4786,3.5042,3.5033,3.5427,3.562,3.5856,3.6051,3.6046,3.6276,3.6258,3.6351,3.641,3.6763,3.6886,3.6719,3.7318,3.7188,3.7231,3.7226,3.727,3.7303,3.7264,3.6636,0,0,0,0,0,3.4702,3.5008,3.4997,3.5081,3.553,3.586,3.5918,3.5999,3.5899,3.605,3.6179,3.6161,3.6812,3.6667,3.675,3.6936,3.7591,3.7616,3.7641,3.7728,3.7772,3.781,0,0,0,0,0,0,3.4736,3.4838,3.4989,3.5235,3.5337,3.585,3.5698,3.5729,3.5885,3.5875,3.6136,3.617,3.6248,3.663,3.6704,3.6878,3.6612,3.7601,3.7623,3.7642,3.7743,3.7779,3.7811,0,0,0,0,0,3.4763,3.4845,3.5543,3.5232,3.532,3.55,3.5687,3.5712,3.5835,3.604,3.6072,3.5882,3.6251,3.6319,3.6675,3.6842,3.6561,3.6588,3.7615,3.7632,3.7648,3.7761,0,0,0,0,0,0,3.4783,3.4871,3.5563,3.5593,3.5124,3.5473,3.553,3.5697,3.5991,3.6026,3.5789,3.5778,3.6257,3.6309,3.6361,3.6824,3.652,3.6548,3.6565,3.7628,3.7642,3.7654,0,0,0,0,0,0,3.4827,3.4896,3.5578,3.5438,3.5452,3.5447,3.5499,3.5817,3.5995,3.5724,3.5723,3.578,3.618,3.6303,3.6344,3.6838,3.6488,3.6515,3.6533,3.6545,3.7639,3.765,0,0,0,0,0,0,3.4858,3.4917,3.543,3.5442,3.5454,3.5796,3.5731,3.6188,3.5869,3.5711,3.5843,3.5831,3.6176,3.6218,3.6332,3.6808,3.683,3.6489,3.6507,3.652,3.6528,0,0,0,0,0,0,0,3.4882,3.4465,3.5385,3.5445,3.5455,3.5869,3.5878,3.5886,3.5866,3.5856,3.5846,3.5836,3.6337,3.6366,3.6395,3.6785,0,0,3.6486,3.6499,0,0,0,0,0,0,0,0,3.4442,3.446,3.5386,3.5392,3.5398,3.5871,3.5877,3.5884,3.5865,3.5856,3.5848,3.584,3.6345,3.6368,3.6392,0,0,0,0,0,0,0,0,0,0,0,0,0,0,0,3.5387,3.5392,0,3.5871,3.5877,3.5883,3.5863,3.5857,3.585,3.5843,3.6351,3.637,3.639,0,0,0,0,0,0,0,0,0,0,0,0,0,0,0,0,0,0,0,0,0,0,0,0,0,0,0,0,0,0,0,0,0,0,0,0,0,0,0,0,0,0,0,0,0,0,0,0,0,0,0,0,0,0,0,0,0,0,0,0,0,0,0,0,0,0,0,0,0]}]]]